Time,TemperatureF,DewpointF,PressureIn,WindDirection,WindDirectionDegrees,WindSpeedMPH,WindSpeedGustMPH,Humidity,HourlyPrecipIn,Conditions,Clouds,dailyrainin,SolarRadiationWatts/m^2,SoftwareType,DateUTC
2013-04-20 00:03:00,41.9,39.2,30.50,ENE,71,0.0,0.0,90,0.00,,,0.00,0,WeatherCatV1.15B25,2013-04-19 23:03:00,
2013-04-20 00:08:00,41.9,39.2,30.50,ENE,71,0.0,0.0,90,0.00,,,0.00,0,WeatherCatV1.15B25,2013-04-19 23:08:00,
2013-04-20 00:13:00,41.8,39.1,30.50,ENE,71,0.0,1.0,90,0.00,,,0.00,0,WeatherCatV1.15B25,2013-04-19 23:13:00,
2013-04-20 00:18:00,41.8,39.1,30.50,ENE,71,0.0,1.0,90,0.00,,,0.00,0,WeatherCatV1.15B25,2013-04-19 23:18:00,
2013-04-20 00:23:00,41.7,39.0,30.50,ENE,71,0.0,0.0,90,0.00,,,0.00,0,WeatherCatV1.15B25,2013-04-19 23:23:00,
2013-04-20 00:28:00,41.7,39.3,30.51,ENE,71,0.0,0.0,91,0.00,,,0.00,0,WeatherCatV1.15B25,2013-04-19 23:28:00,
2013-04-20 00:33:00,41.7,39.3,30.51,ENE,71,0.0,0.0,91,0.00,,,0.00,0,WeatherCatV1.15B25,2013-04-19 23:33:00,
2013-04-20 00:38:00,41.6,39.2,30.51,ENE,71,0.0,1.0,91,0.00,,,0.00,0,WeatherCatV1.15B25,2013-04-19 23:38:00,
2013-04-20 00:43:00,41.4,39.0,30.51,ENE,71,0.0,1.0,91,0.00,,,0.00,0,WeatherCatV1.15B25,2013-04-19 23:43:00,
2013-04-20 00:48:00,41.3,38.9,30.50,ENE,71,0.0,0.0,91,0.00,,,0.00,0,WeatherCatV1.15B25,2013-04-19 23:48:00,
2013-04-20 00:53:00,41.3,38.9,30.51,ENE,71,0.0,0.0,91,0.00,,,0.00,0,WeatherCatV1.15B25,2013-04-19 23:53:00,
2013-04-20 00:58:00,41.2,38.8,30.51,ENE,71,0.0,0.0,91,0.00,,,0.00,0,WeatherCatV1.15B25,2013-04-19 23:58:00,
2013-04-20 01:03:00,41.1,38.7,30.51,ENE,71,0.0,0.0,91,0.00,,,0.00,0,WeatherCatV1.15B25,2013-04-20 00:03:00,
2013-04-20 01:08:00,41.1,39.0,30.51,ENE,71,0.0,0.0,92,0.00,,,0.00,0,WeatherCatV1.15B25,2013-04-20 00:08:00,
2013-04-20 01:13:00,41.0,38.9,30.51,ENE,71,0.0,0.0,92,0.00,,,0.00,0,WeatherCatV1.15B25,2013-04-20 00:13:00,
2013-04-20 01:18:00,41.0,38.9,30.51,ENE,71,0.0,0.0,92,0.00,,,0.00,0,WeatherCatV1.15B25,2013-04-20 00:18:00,
2013-04-20 01:23:00,41.0,38.9,30.51,ENE,71,0.0,0.0,92,0.00,,,0.00,0,WeatherCatV1.15B25,2013-04-20 00:23:00,
2013-04-20 01:28:00,40.8,38.7,30.51,ENE,71,0.0,0.0,92,0.00,,,0.00,0,WeatherCatV1.15B25,2013-04-20 00:28:00,
2013-04-20 01:33:00,40.8,38.7,30.51,ENE,71,0.0,0.0,92,0.00,,,0.00,0,WeatherCatV1.15B25,2013-04-20 00:33:00,
2013-04-20 01:38:00,40.7,38.6,30.51,ENE,71,0.0,0.0,92,0.00,,,0.00,0,WeatherCatV1.15B25,2013-04-20 00:38:00,
2013-04-20 01:43:00,40.6,38.5,30.51,ENE,71,0.0,0.0,92,0.00,,,0.00,0,WeatherCatV1.15B25,2013-04-20 00:43:00,
2013-04-20 01:48:00,40.6,38.7,30.51,ENE,71,0.0,0.0,93,0.00,,,0.00,0,WeatherCatV1.15B25,2013-04-20 00:48:00,
2013-04-20 01:53:00,40.5,38.6,30.51,ENE,71,0.0,0.0,93,0.00,,,0.00,0,WeatherCatV1.15B25,2013-04-20 00:53:00,
2013-04-20 01:58:00,40.4,38.5,30.51,ENE,71,0.0,0.0,93,0.00,,,0.00,0,WeatherCatV1.15B25,2013-04-20 00:58:00,
2013-04-20 02:03:00,40.4,38.5,30.51,ENE,71,0.0,0.0,93,0.00,,,0.00,0,WeatherCatV1.15B25,2013-04-20 01:03:00,
2013-04-20 02:08:00,40.3,38.4,30.51,ENE,71,0.0,0.0,93,0.00,,,0.00,0,WeatherCatV1.15B25,2013-04-20 01:08:00,
2013-04-20 02:13:00,40.3,38.4,30.52,ENE,71,0.0,0.0,93,0.00,,,0.00,0,WeatherCatV1.15B25,2013-04-20 01:13:00,
2013-04-20 02:18:00,40.3,38.4,30.52,ENE,71,0.0,0.0,93,0.00,,,0.00,0,WeatherCatV1.15B25,2013-04-20 01:18:00,
2013-04-20 02:23:00,40.3,38.4,30.52,ENE,71,0.0,0.0,93,0.00,,,0.00,0,WeatherCatV1.15B25,2013-04-20 01:23:00,
2013-04-20 02:28:00,40.2,38.3,30.52,ENE,71,0.0,0.0,93,0.00,,,0.00,0,WeatherCatV1.15B25,2013-04-20 01:28:00,
2013-04-20 02:33:00,40.1,38.2,30.52,ENE,71,0.0,0.0,93,0.00,,,0.00,0,WeatherCatV1.15B25,2013-04-20 01:33:00,
2013-04-20 02:38:00,40.0,38.1,30.52,ENE,71,0.0,0.0,93,0.00,,,0.00,0,WeatherCatV1.15B25,2013-04-20 01:38:00,
2013-04-20 02:43:00,39.9,38.0,30.52,ENE,71,0.0,0.0,93,0.00,,,0.00,0,WeatherCatV1.15B25,2013-04-20 01:43:00,
2013-04-20 02:48:00,39.7,37.8,30.52,ENE,71,0.0,0.0,93,0.00,,,0.00,0,WeatherCatV1.15B25,2013-04-20 01:48:00,
2013-04-20 02:53:00,39.5,37.6,30.52,ENE,71,0.0,0.0,93,0.00,,,0.00,0,WeatherCatV1.15B25,2013-04-20 01:53:00,
2013-04-20 02:58:00,39.2,37.3,30.52,ENE,71,0.0,0.0,93,0.00,,,0.00,0,WeatherCatV1.15B25,2013-04-20 01:58:00,
2013-04-20 03:03:00,39.0,37.2,30.52,ENE,71,0.0,0.0,93,0.00,,,0.00,0,WeatherCatV1.15B25,2013-04-20 02:03:00,
2013-04-20 03:08:00,38.9,37.1,30.52,ENE,71,0.0,0.0,93,0.00,,,0.00,0,WeatherCatV1.15B25,2013-04-20 02:08:00,
2013-04-20 03:13:00,38.9,37.1,30.52,ENE,71,0.0,0.0,93,0.00,,,0.00,0,WeatherCatV1.15B25,2013-04-20 02:13:00,
2013-04-20 03:18:00,38.8,37.0,30.52,ENE,71,0.0,0.0,93,0.00,,,0.00,0,WeatherCatV1.15B25,2013-04-20 02:18:00,
2013-04-20 03:23:00,38.8,37.2,30.52,ENE,71,0.0,0.0,94,0.00,,,0.00,0,WeatherCatV1.15B25,2013-04-20 02:23:00,
2013-04-20 03:28:00,38.9,37.3,30.52,ENE,71,0.0,0.0,94,0.00,,,0.00,0,WeatherCatV1.15B25,2013-04-20 02:28:00,
2013-04-20 03:33:00,39.1,37.5,30.53,ENE,71,0.0,0.0,94,0.00,,,0.00,0,WeatherCatV1.15B25,2013-04-20 02:33:00,
2013-04-20 03:38:00,39.0,37.4,30.53,ENE,71,0.0,0.0,94,0.00,,,0.00,0,WeatherCatV1.15B25,2013-04-20 02:38:00,
2013-04-20 03:43:00,39.0,37.4,30.52,ENE,71,0.0,0.0,94,0.00,,,0.00,0,WeatherCatV1.15B25,2013-04-20 02:43:00,
2013-04-20 03:48:00,38.9,37.3,30.52,ENE,71,0.0,0.0,94,0.00,,,0.00,0,WeatherCatV1.15B25,2013-04-20 02:48:00,
2013-04-20 03:53:00,38.9,37.3,30.52,ENE,71,0.0,0.0,94,0.00,,,0.00,0,WeatherCatV1.15B25,2013-04-20 02:53:00,
2013-04-20 03:58:00,39.0,37.7,30.53,ENE,71,0.0,0.0,95,0.00,,,0.00,0,WeatherCatV1.15B25,2013-04-20 02:58:00,
2013-04-20 04:03:00,39.2,37.9,30.53,ENE,71,0.0,0.0,95,0.00,,,0.00,0,WeatherCatV1.15B25,2013-04-20 03:03:00,
2013-04-20 04:08:00,39.0,37.4,30.53,ENE,71,0.0,0.0,94,0.00,,,0.00,0,WeatherCatV1.15B25,2013-04-20 03:08:00,
2013-04-20 04:13:00,38.7,37.1,30.53,ENE,71,0.0,0.0,94,0.00,,,0.00,0,WeatherCatV1.15B25,2013-04-20 03:13:00,
2013-04-20 04:18:00,38.6,37.0,30.52,ENE,71,0.0,0.0,94,0.00,,,0.00,0,WeatherCatV1.15B25,2013-04-20 03:18:00,
2013-04-20 04:23:00,38.7,37.4,30.52,ENE,71,0.0,0.0,95,0.00,,,0.00,0,WeatherCatV1.15B25,2013-04-20 03:23:00,
2013-04-20 04:28:00,38.8,37.5,30.52,ENE,71,0.0,0.0,95,0.00,,,0.00,0,WeatherCatV1.15B25,2013-04-20 03:28:00,
2013-04-20 04:33:00,38.7,37.1,30.52,ENE,71,0.0,0.0,94,0.00,,,0.00,0,WeatherCatV1.15B25,2013-04-20 03:33:00,
2013-04-20 04:38:00,38.4,36.8,30.52,ENE,71,0.0,0.0,94,0.00,,,0.00,0,WeatherCatV1.15B25,2013-04-20 03:38:00,
2013-04-20 04:43:00,38.2,36.6,30.52,ENE,71,0.0,0.0,94,0.00,,,0.00,0,WeatherCatV1.15B25,2013-04-20 03:43:00,
2013-04-20 04:48:00,38.0,36.4,30.52,ENE,71,0.0,0.0,94,0.00,,,0.00,0,WeatherCatV1.15B25,2013-04-20 03:48:00,
2013-04-20 04:53:00,38.1,36.8,30.52,ENE,71,0.0,0.0,95,0.00,,,0.00,0,WeatherCatV1.15B25,2013-04-20 03:53:00,
2013-04-20 04:58:00,38.1,36.8,30.52,ENE,71,0.0,0.0,95,0.00,,,0.00,0,WeatherCatV1.15B25,2013-04-20 03:58:00,
2013-04-20 05:01:00,38.1,36.8,30.52,ENE,71,0.0,0.0,95,0.00,,,0.00,0,WeatherCatV1.15B25,2013-04-20 04:01:00,
2013-04-20 05:06:00,38.0,36.7,30.52,ENE,71,0.0,0.0,95,0.00,,,0.00,0,WeatherCatV1.15B25,2013-04-20 04:06:00,
2013-04-20 05:11:00,37.9,36.6,30.52,ENE,71,0.0,0.0,95,0.00,,,0.00,0,WeatherCatV1.15B25,2013-04-20 04:11:00,
2013-04-20 05:16:00,37.8,36.5,30.52,ENE,71,0.0,1.0,95,0.00,,,0.00,0,WeatherCatV1.15B25,2013-04-20 04:16:00,
2013-04-20 05:21:00,37.9,36.6,30.52,ENE,71,0.0,0.0,95,0.00,,,0.00,0,WeatherCatV1.15B25,2013-04-20 04:21:00,
2013-04-20 05:26:00,37.8,36.5,30.52,ENE,71,0.0,0.0,95,0.00,,,0.00,0,WeatherCatV1.15B25,2013-04-20 04:26:00,
2013-04-20 05:31:00,37.8,36.5,30.52,ENE,71,0.0,0.0,95,0.00,,,0.00,0,WeatherCatV1.15B25,2013-04-20 04:31:00,
2013-04-20 05:36:00,37.7,36.4,30.51,ENE,71,0.0,0.0,95,0.00,,,0.00,0,WeatherCatV1.15B25,2013-04-20 04:36:00,
2013-04-20 05:41:00,37.6,36.3,30.52,ENE,71,0.0,0.0,95,0.00,,,0.00,0,WeatherCatV1.15B25,2013-04-20 04:41:00,
2013-04-20 05:46:00,37.5,36.2,30.52,ENE,71,0.0,0.0,95,0.00,,,0.00,0,WeatherCatV1.15B25,2013-04-20 04:46:00,
2013-04-20 05:51:00,37.6,36.3,30.52,ENE,71,0.0,0.0,95,0.00,,,0.00,0,WeatherCatV1.15B25,2013-04-20 04:51:00,
2013-04-20 05:56:00,37.7,36.4,30.52,ENE,71,0.0,0.0,95,0.00,,,0.00,5,WeatherCatV1.15B25,2013-04-20 04:56:00,
2013-04-20 06:01:00,37.7,36.4,30.52,ENE,71,0.0,0.0,95,0.00,,,0.00,7,WeatherCatV1.15B25,2013-04-20 05:01:00,
2013-04-20 06:06:00,37.8,36.5,30.52,ENE,71,0.0,0.0,95,0.00,,,0.00,9,WeatherCatV1.15B25,2013-04-20 05:06:00,
2013-04-20 06:11:00,37.7,36.4,30.52,ENE,71,0.0,0.0,95,0.00,,,0.00,12,WeatherCatV1.15B25,2013-04-20 05:11:00,
2013-04-20 06:16:00,37.7,36.4,30.53,ENE,71,0.0,0.0,95,0.00,,,0.00,16,WeatherCatV1.15B25,2013-04-20 05:16:00,
2013-04-20 06:21:00,37.7,36.4,30.52,ENE,71,0.0,0.0,95,0.00,,,0.00,18,WeatherCatV1.15B25,2013-04-20 05:21:00,
2013-04-20 06:26:00,37.9,36.9,30.53,ENE,71,0.0,0.0,96,0.00,,,0.00,21,WeatherCatV1.15B25,2013-04-20 05:26:00,
2013-04-20 06:31:00,38.0,37.0,30.53,ENE,71,0.0,0.0,96,0.00,,,0.00,28,WeatherCatV1.15B25,2013-04-20 05:31:00,
2013-04-20 06:36:00,38.2,37.2,30.53,ENE,71,0.0,0.0,96,0.00,,,0.00,32,WeatherCatV1.15B25,2013-04-20 05:36:00,
2013-04-20 06:41:00,38.5,37.5,30.53,ENE,71,0.0,0.0,96,0.00,,,0.00,44,WeatherCatV1.15B25,2013-04-20 05:41:00,
2013-04-20 06:46:00,38.8,37.8,30.53,ENE,71,0.0,0.0,96,0.00,,,0.00,53,WeatherCatV1.15B25,2013-04-20 05:46:00,
2013-04-20 06:51:00,39.0,38.0,30.54,ENE,71,0.0,0.0,96,0.00,,,0.00,67,WeatherCatV1.15B25,2013-04-20 05:51:00,
2013-04-20 06:56:00,39.3,38.3,30.53,ENE,71,0.0,0.0,96,0.00,,,0.00,79,WeatherCatV1.15B25,2013-04-20 05:56:00,
2013-04-20 07:01:00,39.7,38.7,30.54,ENE,71,0.0,0.0,96,0.00,,,0.00,91,WeatherCatV1.15B25,2013-04-20 06:01:00,
2013-04-20 07:06:00,40.1,39.1,30.54,ENE,71,0.0,0.0,96,0.00,,,0.00,107,WeatherCatV1.15B25,2013-04-20 06:06:00,
2013-04-20 07:11:00,40.3,39.0,30.54,ENE,71,0.0,1.0,95,0.00,,,0.00,105,WeatherCatV1.15B25,2013-04-20 06:11:00,
2013-04-20 07:16:00,40.5,39.2,30.54,ENE,71,0.0,1.0,95,0.00,,,0.00,130,WeatherCatV1.15B25,2013-04-20 06:16:00,
2013-04-20 07:21:00,40.9,39.6,30.54,ENE,71,1.0,2.0,95,0.00,,,0.00,148,WeatherCatV1.15B25,2013-04-20 06:21:00,
2013-04-20 07:26:00,41.1,39.5,30.54,ESE,103,0.0,3.0,94,0.00,,,0.01,156,WeatherCatV1.15B25,2013-04-20 06:26:00,
2013-04-20 07:31:00,41.3,39.4,30.55,ESE,103,1.0,1.0,93,0.00,,,0.01,176,WeatherCatV1.15B25,2013-04-20 06:31:00,
2013-04-20 07:36:00,41.6,39.5,30.55,ESE,103,0.0,1.0,92,0.00,,,0.01,200,WeatherCatV1.15B25,2013-04-20 06:36:00,
2013-04-20 07:41:00,41.9,39.5,30.55,ESE,103,1.0,1.0,91,0.00,,,0.01,216,WeatherCatV1.15B25,2013-04-20 06:41:00,
2013-04-20 07:46:00,42.3,39.3,30.55,ESE,103,0.0,0.0,89,0.00,,,0.01,230,WeatherCatV1.15B25,2013-04-20 06:46:00,
2013-04-20 07:49:00,42.4,38.8,30.55,ESE,103,0.0,1.0,87,0.00,,,0.01,243,WeatherCatV1.15B25,2013-04-20 06:49:00,
2013-04-20 07:54:00,42.5,38.6,30.54,ESE,103,0.0,1.0,86,0.00,,,0.01,258,WeatherCatV1.15B25,2013-04-20 06:54:00,
2013-04-20 07:59:00,42.8,38.6,30.54,ESE,103,3.0,3.0,85,0.00,,,0.01,274,WeatherCatV1.15B25,2013-04-20 06:59:00,
2013-04-20 08:04:00,43.1,38.6,30.54,ESE,117,2.0,4.0,84,0.00,,,0.01,288,WeatherCatV1.15B25,2013-04-20 07:04:00,
2013-04-20 08:09:00,43.5,38.4,30.54,SE,125,0.0,3.0,82,0.00,,,0.01,306,WeatherCatV1.15B25,2013-04-20 07:09:00,
2013-04-20 08:14:00,43.8,38.0,30.54,SE,131,1.0,5.0,80,0.00,,,0.01,325,WeatherCatV1.15B25,2013-04-20 07:14:00,
2013-04-20 08:19:00,44.2,38.1,30.54,SE,128,1.0,4.0,79,0.00,,,0.01,343,WeatherCatV1.15B25,2013-04-20 07:19:00,
2013-04-20 08:24:00,44.6,38.2,30.54,SE,128,4.0,4.0,78,0.00,,,0.01,357,WeatherCatV1.15B25,2013-04-20 07:24:00,
2013-04-20 08:29:00,45.0,38.2,30.54,SE,128,2.0,3.0,77,0.00,,,0.01,371,WeatherCatV1.15B25,2013-04-20 07:29:00,
2013-04-20 08:34:00,45.6,38.5,30.54,SE,126,1.0,4.0,76,0.00,,,0.01,383,WeatherCatV1.15B25,2013-04-20 07:34:00,
2013-04-20 08:39:00,45.8,37.3,30.54,SE,135,0.0,2.0,72,0.00,,,0.01,403,WeatherCatV1.15B25,2013-04-20 07:39:00,
2013-04-20 08:44:00,45.7,36.8,30.54,SE,132,2.0,7.0,71,0.00,,,0.01,418,WeatherCatV1.15B25,2013-04-20 07:44:00,
2013-04-20 08:48:00,45.8,37.3,30.54,SE,126,0.0,4.0,72,0.00,,,0.01,427,WeatherCatV1.15B25,2013-04-20 07:48:00,
2013-04-20 08:53:00,46.0,37.1,30.53,SE,126,0.0,2.0,71,0.00,,,0.01,441,WeatherCatV1.15B25,2013-04-20 07:53:00,
2013-04-20 08:58:00,46.2,36.6,30.53,SE,136,2.0,3.0,69,0.00,,,0.01,459,WeatherCatV1.15B25,2013-04-20 07:58:00,
2013-04-20 09:03:00,46.5,36.1,30.54,SE,130,2.0,4.0,67,0.00,,,0.01,475,WeatherCatV1.15B25,2013-04-20 08:03:00,
2013-04-20 09:08:00,46.6,35.1,30.54,SE,134,0.0,2.0,64,0.00,,,0.01,490,WeatherCatV1.15B25,2013-04-20 08:08:00,
2013-04-20 09:13:00,46.8,36.0,30.53,SE,128,1.0,5.0,66,0.00,,,0.01,501,WeatherCatV1.15B25,2013-04-20 08:13:00,
2013-04-20 09:18:00,47.5,35.9,30.53,SE,135,6.0,8.0,64,0.00,,,0.01,512,WeatherCatV1.15B25,2013-04-20 08:18:00,
2013-04-20 09:24:00,47.9,36.3,30.53,SE,127,8.0,9.0,64,0.00,,,0.01,533,WeatherCatV1.15B25,2013-04-20 08:24:00,
2013-04-20 09:29:00,48.1,36.1,30.53,SE,129,3.0,4.0,63,0.00,,,0.01,547,WeatherCatV1.15B25,2013-04-20 08:29:00,
2013-04-20 09:34:00,48.3,35.5,30.53,SE,129,2.0,2.0,61,0.00,,,0.01,561,WeatherCatV1.15B25,2013-04-20 08:34:00,
2013-04-20 09:39:00,48.4,35.2,30.53,SE,131,0.0,3.0,60,0.00,,,0.01,571,WeatherCatV1.15B25,2013-04-20 08:39:00,
2013-04-20 09:44:00,48.3,35.5,30.53,SE,126,2.0,5.0,61,0.00,,,0.01,584,WeatherCatV1.15B25,2013-04-20 08:44:00,
2013-04-20 09:49:00,48.6,35.3,30.53,ESE,116,4.0,6.0,60,0.00,,,0.01,596,WeatherCatV1.15B25,2013-04-20 08:49:00,
2013-04-20 09:54:00,49.0,34.9,30.53,SE,132,2.0,5.0,58,0.00,,,0.01,606,WeatherCatV1.15B25,2013-04-20 08:54:00,
2013-04-20 09:59:00,49.2,34.6,30.53,ESE,121,3.0,5.0,57,0.00,,,0.01,624,WeatherCatV1.15B25,2013-04-20 08:59:00,
2013-04-20 10:04:00,49.1,33.6,30.53,SE,126,1.0,2.0,55,0.00,,,0.01,631,WeatherCatV1.15B25,2013-04-20 09:04:00,
2013-04-20 10:09:00,49.0,33.5,30.53,SE,130,0.0,2.0,55,0.00,,,0.01,643,WeatherCatV1.15B25,2013-04-20 09:09:00,
2013-04-20 10:14:00,49.1,33.2,30.53,ESE,123,4.0,9.0,54,0.00,,,0.01,654,WeatherCatV1.15B25,2013-04-20 09:14:00,
2013-04-20 10:16:00,49.1,32.7,30.53,SE,129,1.0,5.0,53,0.00,,,0.01,661,WeatherCatV1.15B25,2013-04-20 09:16:00,
2013-04-20 10:21:00,49.0,33.5,30.53,SE,140,6.0,8.0,55,0.00,,,0.01,664,WeatherCatV1.15B25,2013-04-20 09:21:00,
2013-04-20 10:26:00,49.4,33.9,30.53,SE,134,3.0,3.0,55,0.00,,,0.01,679,WeatherCatV1.15B25,2013-04-20 09:26:00,
2013-04-20 10:31:00,49.6,33.6,30.53,SE,126,1.0,3.0,54,0.00,,,0.01,687,WeatherCatV1.15B25,2013-04-20 09:31:00,
2013-04-20 10:36:00,49.9,34.8,30.53,SE,131,7.0,7.0,56,0.00,,,0.01,694,WeatherCatV1.15B25,2013-04-20 09:36:00,
2013-04-20 10:41:00,50.5,34.9,30.53,SE,137,4.0,6.0,55,0.00,,,0.01,707,WeatherCatV1.15B25,2013-04-20 09:41:00,
2013-04-20 10:46:00,50.7,34.7,30.53,SE,133,6.0,6.0,54,0.00,,,0.01,717,WeatherCatV1.15B25,2013-04-20 09:46:00,
2013-04-20 10:51:00,50.7,33.2,30.53,SE,138,7.0,7.0,51,0.00,,,0.01,728,WeatherCatV1.15B25,2013-04-20 09:51:00,
2013-04-20 10:56:00,50.9,33.9,30.52,SE,143,3.0,9.0,52,0.00,,,0.01,735,WeatherCatV1.15B25,2013-04-20 09:56:00,
2013-04-20 11:01:00,51.4,34.8,30.52,SE,135,3.0,7.0,53,0.00,,,0.01,742,WeatherCatV1.15B25,2013-04-20 10:01:00,
2013-04-20 11:06:00,51.7,34.6,30.52,SE,134,5.0,8.0,52,0.00,,,0.01,749,WeatherCatV1.15B25,2013-04-20 10:06:00,
2013-04-20 11:11:00,52.0,34.4,30.52,SE,135,3.0,7.0,51,0.00,,,0.01,756,WeatherCatV1.15B25,2013-04-20 10:11:00,
2013-04-20 11:16:00,52.4,35.3,30.52,SE,129,2.0,4.0,52,0.00,,,0.01,763,WeatherCatV1.15B25,2013-04-20 10:16:00,
2013-04-20 11:21:00,52.4,35.3,30.52,SE,138,7.0,8.0,52,0.00,,,0.01,772,WeatherCatV1.15B25,2013-04-20 10:21:00,
2013-04-20 11:26:00,52.7,34.1,30.52,WSW,255,0.0,1.0,49,0.00,,,0.01,777,WeatherCatV1.15B25,2013-04-20 10:26:00,
2013-04-20 11:31:00,52.4,34.3,30.52,SSE,147,1.0,1.0,50,0.00,,,0.01,786,WeatherCatV1.15B25,2013-04-20 10:31:00,
2013-04-20 11:36:00,52.7,34.1,30.52,SE,140,3.0,7.0,49,0.00,,,0.01,791,WeatherCatV1.15B25,2013-04-20 10:36:00,
2013-04-20 11:41:00,52.9,33.7,30.51,SE,129,2.0,2.0,48,0.00,,,0.01,793,WeatherCatV1.15B25,2013-04-20 10:41:00,
2013-04-20 11:46:00,53.1,33.4,30.51,SSE,162,1.0,7.0,47,0.00,,,0.01,807,WeatherCatV1.15B25,2013-04-20 10:46:00,
2013-04-20 11:51:00,52.6,34.5,30.51,SE,126,1.0,4.0,50,0.00,,,0.01,800,WeatherCatV1.15B25,2013-04-20 10:51:00,
2013-04-20 11:56:00,53.0,35.4,30.51,SE,144,3.0,6.0,51,0.00,,,0.01,812,WeatherCatV1.15B25,2013-04-20 10:56:00,
2013-04-20 12:01:00,53.8,34.0,30.51,SE,135,3.0,7.0,47,0.00,,,0.01,814,WeatherCatV1.15B25,2013-04-20 11:01:00,
2013-04-20 12:06:00,53.1,32.9,30.51,SE,130,0.0,4.0,46,0.00,,,0.01,826,WeatherCatV1.15B25,2013-04-20 11:06:00,
2013-04-20 12:10:00,54.5,34.1,30.51,SE,129,3.0,8.0,46,0.00,,,0.00,817,WeatherCatV1.15B25,2013-04-20 11:10:00,
2013-04-20 12:11:00,55.0,34.1,30.51,SE,127,4.0,9.0,45,0.00,,,0.01,821,WeatherCatV1.15B25,2013-04-20 11:11:00,
2013-04-20 12:15:00,54.7,33.2,30.51,SE,126,3.0,5.0,44,0.00,,,0.00,824,WeatherCatV1.15B25,2013-04-20 11:15:00,
2013-04-20 12:20:00,54.6,34.2,30.51,SE,127,3.0,5.0,46,0.00,,,0.00,826,WeatherCatV1.15B25,2013-04-20 11:20:00,
2013-04-20 12:25:00,53.9,32.5,30.50,SE,127,3.0,5.0,44,0.00,,,0.00,826,WeatherCatV1.15B25,2013-04-20 11:25:00,
2013-04-20 12:30:00,55.9,35.4,30.50,SE,132,4.0,7.0,46,0.00,,,0.00,830,WeatherCatV1.15B25,2013-04-20 11:30:00,
2013-04-20 12:35:00,56.1,35.1,30.50,SE,131,4.0,4.0,45,0.00,,,0.00,830,WeatherCatV1.15B25,2013-04-20 11:35:00,
2013-04-20 12:40:00,57.2,34.3,30.50,SE,135,2.0,4.0,42,0.00,,,0.00,846,WeatherCatV1.15B25,2013-04-20 11:40:00,
2013-04-20 12:45:00,56.4,33.6,30.50,SE,135,3.0,7.0,42,0.00,,,0.00,838,WeatherCatV1.15B25,2013-04-20 11:45:00,
2013-04-20 12:50:00,54.6,32.0,30.50,SE,131,3.0,7.0,42,0.00,,,0.00,847,WeatherCatV1.15B25,2013-04-20 11:50:00,
2013-04-20 12:55:00,55.1,31.2,30.50,SE,130,3.0,5.0,40,0.00,,,0.00,846,WeatherCatV1.15B25,2013-04-20 11:55:00,
2013-04-20 13:00:00,54.3,31.7,30.50,SE,137,4.0,5.0,42,0.00,,,0.00,838,WeatherCatV1.15B25,2013-04-20 12:00:00,
2013-04-20 13:05:00,56.3,33.5,30.50,SE,131,3.0,7.0,42,0.00,,,0.00,835,WeatherCatV1.15B25,2013-04-20 12:05:00,
2013-04-20 13:10:00,56.0,32.0,30.49,SE,133,4.0,10.0,40,0.00,,,0.00,837,WeatherCatV1.15B25,2013-04-20 12:10:00,
2013-04-20 13:15:00,55.5,31.6,30.49,SE,130,5.0,11.0,40,0.00,,,0.00,847,WeatherCatV1.15B25,2013-04-20 12:15:00,
2013-04-20 13:20:00,56.1,32.7,30.49,SE,131,5.0,9.0,41,0.00,,,0.00,844,WeatherCatV1.15B25,2013-04-20 12:20:00,
2013-04-20 13:25:00,56.9,33.4,30.49,SE,133,5.0,9.0,41,0.00,,,0.00,837,WeatherCatV1.15B25,2013-04-20 12:25:00,
2013-04-20 13:30:00,56.0,30.8,30.48,SE,132,4.0,5.0,38,0.00,,,0.00,838,WeatherCatV1.15B25,2013-04-20 12:30:00,
2013-04-20 13:35:00,56.4,32.4,30.48,SE,132,3.0,11.0,40,0.00,,,0.00,104,WeatherCatV1.15B25,2013-04-20 12:35:00,
2013-04-20 13:40:00,58.7,33.2,30.48,SE,131,5.0,11.0,38,0.00,,,0.00,838,WeatherCatV1.15B25,2013-04-20 12:40:00,
2013-04-20 13:45:00,58.5,32.3,30.48,SE,127,6.0,9.0,37,0.00,,,0.00,835,WeatherCatV1.15B25,2013-04-20 12:45:00,
2013-04-20 13:50:00,58.0,31.2,30.48,SE,139,4.0,4.0,36,0.00,,,0.00,828,WeatherCatV1.15B25,2013-04-20 12:50:00,
2013-04-20 13:55:00,58.3,33.5,30.48,SE,132,3.0,8.0,39,0.00,,,0.00,821,WeatherCatV1.15B25,2013-04-20 12:55:00,
2013-04-20 14:00:00,59.9,31.5,30.47,SE,131,4.0,7.0,34,0.00,,,0.00,817,WeatherCatV1.15B25,2013-04-20 13:00:00,
2013-04-20 14:05:00,59.8,32.1,30.47,SE,134,5.0,5.0,35,0.00,,,0.00,816,WeatherCatV1.15B25,2013-04-20 13:05:00,
2013-04-20 14:10:00,59.0,32.1,30.47,SE,131,3.0,4.0,36,0.00,,,0.00,812,WeatherCatV1.15B25,2013-04-20 13:10:00,
2013-04-20 14:15:00,57.7,31.6,30.47,SE,127,2.0,3.0,37,0.00,,,0.00,800,WeatherCatV1.15B25,2013-04-20 13:15:00,
2013-04-20 14:20:00,56.9,32.8,30.47,SE,131,2.0,9.0,40,0.00,,,0.00,789,WeatherCatV1.15B25,2013-04-20 13:20:00,
2013-04-20 14:25:00,58.8,33.9,30.46,SE,133,3.0,5.0,39,0.00,,,0.00,791,WeatherCatV1.15B25,2013-04-20 13:25:00,
2013-04-20 14:30:00,58.0,32.5,30.46,SE,133,4.0,4.0,38,0.00,,,0.00,782,WeatherCatV1.15B25,2013-04-20 13:30:00,
2013-04-20 14:35:00,57.6,31.5,30.46,SE,129,4.0,9.0,37,0.00,,,0.00,768,WeatherCatV1.15B25,2013-04-20 13:35:00,
2013-04-20 14:40:00,57.6,30.2,30.46,SE,127,5.0,8.0,35,0.00,,,0.00,772,WeatherCatV1.15B25,2013-04-20 13:40:00,
2013-04-20 14:45:00,56.0,31.4,30.46,SE,130,3.0,3.0,39,0.00,,,0.00,759,WeatherCatV1.15B25,2013-04-20 13:45:00,
2013-04-20 14:50:00,56.2,30.9,30.45,SE,134,2.0,2.0,38,0.00,,,0.00,754,WeatherCatV1.15B25,2013-04-20 13:50:00,
2013-04-20 14:55:00,56.1,31.5,30.45,SE,133,3.0,3.0,39,0.00,,,0.00,745,WeatherCatV1.15B25,2013-04-20 13:55:00,
2013-04-20 15:00:00,57.9,31.1,30.45,SE,128,3.0,7.0,36,0.00,,,0.00,737,WeatherCatV1.15B25,2013-04-20 14:00:00,
2013-04-20 15:05:00,58.0,30.5,30.45,SE,144,3.0,0.0,35,0.00,,,0.00,740,WeatherCatV1.15B25,2013-04-20 14:05:00,
2013-04-20 15:17:00,58.9,32.0,30.45,SE,146,3.0,6.0,36,0.00,,,0.00,724,WeatherCatV1.15B25,2013-04-20 14:17:00,
2013-04-20 15:22:00,60.3,31.8,30.44,SE,143,3.0,7.0,34,0.00,,,0.01,700,WeatherCatV1.15B25,2013-04-20 14:22:00,
2013-04-20 15:27:00,59.4,30.3,30.44,ESE,120,3.0,10.0,33,0.00,,,0.01,691,WeatherCatV1.15B25,2013-04-20 14:27:00,
2013-04-20 15:32:00,60.0,30.8,30.44,SSE,149,3.0,8.0,33,0.00,,,0.01,680,WeatherCatV1.15B25,2013-04-20 14:32:00,
2013-04-20 15:37:00,58.2,29.2,30.44,SE,127,1.0,3.0,33,0.00,,,0.01,673,WeatherCatV1.15B25,2013-04-20 14:37:00,
2013-04-20 15:42:00,58.1,30.6,30.44,SE,130,2.0,11.0,35,0.00,,,0.01,659,WeatherCatV1.15B25,2013-04-20 14:42:00,
2013-04-20 15:47:00,59.8,32.1,30.44,ESE,121,1.0,7.0,35,0.00,,,0.01,650,WeatherCatV1.15B25,2013-04-20 14:47:00,
2013-04-20 15:52:00,61.4,32.0,30.43,SE,125,5.0,9.0,33,0.00,,,0.01,640,WeatherCatV1.15B25,2013-04-20 14:52:00,
2013-04-20 15:57:00,59.8,31.4,30.43,SE,132,4.0,4.0,34,0.00,,,0.01,628,WeatherCatV1.15B25,2013-04-20 14:57:00,
2013-04-20 16:02:00,61.2,32.6,30.43,SE,132,2.0,6.0,34,0.00,,,0.01,617,WeatherCatV1.15B25,2013-04-20 15:02:00,
2013-04-20 16:07:00,60.5,31.3,30.42,ESE,120,7.0,8.0,33,0.00,,,0.01,605,WeatherCatV1.15B25,2013-04-20 15:07:00,
2013-04-20 16:12:00,57.4,30.0,30.43,SE,135,1.0,5.0,35,0.00,,,0.01,594,WeatherCatV1.15B25,2013-04-20 15:12:00,
2013-04-20 16:17:00,58.8,31.9,30.43,SSE,149,4.0,5.0,36,0.00,,,0.01,577,WeatherCatV1.15B25,2013-04-20 15:17:00,
2013-04-20 16:22:00,60.2,31.7,30.42,SE,136,6.0,11.0,34,0.00,,,0.01,568,WeatherCatV1.15B25,2013-04-20 15:22:00,
2013-04-20 16:27:00,60.6,32.8,30.42,SE,130,3.0,3.0,35,0.00,,,0.01,557,WeatherCatV1.15B25,2013-04-20 15:27:00,
2013-04-20 16:32:00,62.9,32.6,30.42,SE,130,5.0,7.0,32,0.00,,,0.01,541,WeatherCatV1.15B25,2013-04-20 15:32:00,
2013-04-20 16:37:00,58.6,30.3,30.42,SE,125,0.0,7.0,34,0.00,,,0.01,529,WeatherCatV1.15B25,2013-04-20 15:37:00,
2013-04-20 16:42:00,59.9,33.6,30.42,SE,130,4.0,4.0,37,0.00,,,0.01,515,WeatherCatV1.15B25,2013-04-20 15:42:00,
2013-04-20 16:47:00,58.4,31.6,30.42,SE,140,9.0,11.0,36,0.00,,,0.01,501,WeatherCatV1.15B25,2013-04-20 15:47:00,
2013-04-20 16:52:00,56.7,31.4,30.42,ESE,111,0.0,5.0,38,0.00,,,0.01,485,WeatherCatV1.15B25,2013-04-20 15:52:00,
2013-04-20 16:57:00,58.3,33.5,30.42,SE,126,4.0,4.0,39,0.00,,,0.01,473,WeatherCatV1.15B25,2013-04-20 15:57:00,
2013-04-20 17:02:00,58.7,34.4,30.41,SE,140,4.0,5.0,40,0.00,,,0.01,457,WeatherCatV1.15B25,2013-04-20 16:02:00,
2013-04-20 17:07:00,58.4,34.8,30.41,ESE,122,4.0,6.0,41,0.00,,,0.01,445,WeatherCatV1.15B25,2013-04-20 16:07:00,
2013-04-20 17:12:00,59.0,35.3,30.41,SE,144,6.0,10.0,41,0.00,,,0.01,432,WeatherCatV1.15B25,2013-04-20 16:12:00,
2013-04-20 17:17:00,57.5,34.0,30.41,ESE,121,11.0,11.0,41,0.00,,,0.01,413,WeatherCatV1.15B25,2013-04-20 16:17:00,
2013-04-20 17:22:00,57.7,35.4,30.41,SE,139,4.0,9.0,43,0.00,,,0.01,396,WeatherCatV1.15B25,2013-04-20 16:22:00,
2013-04-20 17:27:00,57.5,34.6,30.41,SE,126,9.0,10.0,42,0.00,,,0.01,385,WeatherCatV1.15B25,2013-04-20 16:27:00,
2013-04-20 17:32:00,57.8,35.5,30.41,ESE,117,3.0,6.0,43,0.00,,,0.01,366,WeatherCatV1.15B25,2013-04-20 16:32:00,
2013-04-20 17:37:00,59.7,35.3,30.40,SSE,152,4.0,10.0,40,0.00,,,0.01,350,WeatherCatV1.15B25,2013-04-20 16:37:00,
2013-04-20 17:42:00,57.2,33.7,30.41,SE,142,8.0,8.0,41,0.00,,,0.01,332,WeatherCatV1.15B25,2013-04-20 16:42:00,
2013-04-20 17:47:00,58.3,35.3,30.41,SE,134,6.0,9.0,42,0.00,,,0.01,311,WeatherCatV1.15B25,2013-04-20 16:47:00,
2013-04-20 17:52:00,57.8,34.9,30.40,SE,124,9.0,9.0,42,0.00,,,0.01,299,WeatherCatV1.15B25,2013-04-20 16:52:00,
2013-04-20 17:57:00,55.5,32.8,30.40,SE,130,6.0,7.0,42,0.00,,,0.01,281,WeatherCatV1.15B25,2013-04-20 16:57:00,
2013-04-20 18:02:00,54.5,33.6,30.40,ESE,123,5.0,11.0,45,0.00,,,0.01,271,WeatherCatV1.15B25,2013-04-20 17:02:00,
2013-04-20 18:07:00,54.4,32.9,30.40,SE,128,4.0,7.0,44,0.00,,,0.01,257,WeatherCatV1.15B25,2013-04-20 17:07:00,
2013-04-20 18:12:00,55.0,33.5,30.40,SE,133,8.0,8.0,44,0.00,,,0.01,243,WeatherCatV1.15B25,2013-04-20 17:12:00,
2013-04-20 18:17:00,54.0,33.1,30.40,ESE,109,2.0,6.0,45,0.00,,,0.01,211,WeatherCatV1.15B25,2013-04-20 17:17:00,
2013-04-20 18:22:00,54.5,33.6,30.40,SE,125,4.0,12.0,45,0.00,,,0.01,155,WeatherCatV1.15B25,2013-04-20 17:22:00,
2013-04-20 18:27:00,54.1,33.8,30.40,SE,126,2.0,7.0,46,0.00,,,0.01,111,WeatherCatV1.15B25,2013-04-20 17:27:00,
2013-04-20 18:32:00,53.9,33.6,30.40,SE,142,2.0,9.0,46,0.00,,,0.01,132,WeatherCatV1.15B25,2013-04-20 17:32:00,
2013-04-20 18:37:00,54.3,33.4,30.40,SE,128,3.0,10.0,45,0.00,,,0.01,63,WeatherCatV1.15B25,2013-04-20 17:37:00,
2013-04-20 18:42:00,53.5,33.2,30.40,SE,136,6.0,11.0,46,0.00,,,0.01,56,WeatherCatV1.15B25,2013-04-20 17:42:00,
2013-04-20 18:47:00,52.9,33.7,30.39,ESE,119,4.0,7.0,48,0.00,,,0.01,53,WeatherCatV1.15B25,2013-04-20 17:47:00,
2013-04-20 18:52:00,52.8,33.1,30.39,SE,129,4.0,7.0,47,0.00,,,0.01,40,WeatherCatV1.15B25,2013-04-20 17:52:00,
2013-04-20 18:57:00,52.3,33.7,30.39,SE,131,3.0,5.0,49,0.00,,,0.01,40,WeatherCatV1.15B25,2013-04-20 17:57:00,
2013-04-20 19:02:00,52.5,32.9,30.39,SE,132,5.0,8.0,47,0.00,,,0.01,32,WeatherCatV1.15B25,2013-04-20 18:02:00,
2013-04-20 19:07:00,52.1,32.5,30.39,SE,128,6.0,10.0,47,0.00,,,0.01,32,WeatherCatV1.15B25,2013-04-20 18:07:00,
2013-04-20 19:12:00,51.6,32.0,30.39,SE,124,9.0,10.0,47,0.00,,,0.01,30,WeatherCatV1.15B25,2013-04-20 18:12:00,
2013-04-20 19:17:00,51.5,32.5,30.39,SE,128,4.0,5.0,48,0.00,,,0.01,26,WeatherCatV1.15B25,2013-04-20 18:17:00,
2013-04-20 19:22:00,51.3,32.8,30.39,SE,125,5.0,11.0,49,0.00,,,0.01,25,WeatherCatV1.15B25,2013-04-20 18:22:00,
2013-04-20 19:27:00,51.2,33.2,30.39,SE,126,2.0,6.0,50,0.00,,,0.01,21,WeatherCatV1.15B25,2013-04-20 18:27:00,
2013-04-20 19:32:00,50.8,33.3,30.39,SE,140,6.0,8.0,51,0.00,,,0.01,19,WeatherCatV1.15B25,2013-04-20 18:32:00,
2013-04-20 19:37:00,50.8,33.3,30.39,SE,132,3.0,8.0,51,0.00,,,0.01,18,WeatherCatV1.15B25,2013-04-20 18:37:00,
2013-04-20 19:42:00,50.3,33.8,30.39,SE,128,5.0,7.0,53,0.00,,,0.01,16,WeatherCatV1.15B25,2013-04-20 18:42:00,
2013-04-20 19:47:00,50.0,34.0,30.39,SE,131,5.0,9.0,54,0.00,,,0.01,14,WeatherCatV1.15B25,2013-04-20 18:47:00,
2013-04-20 19:52:00,49.8,33.8,30.39,ESE,114,4.0,6.0,54,0.00,,,0.01,11,WeatherCatV1.15B25,2013-04-20 18:52:00,
2013-04-20 19:57:00,49.7,34.6,30.39,SE,132,3.0,3.0,56,0.00,,,0.01,9,WeatherCatV1.15B25,2013-04-20 18:57:00,
2013-04-20 20:02:00,49.5,34.0,30.40,SE,132,2.0,6.0,55,0.00,,,0.01,5,WeatherCatV1.15B25,2013-04-20 19:02:00,
2013-04-20 20:07:00,49.2,33.3,30.39,SE,138,4.0,4.0,54,0.00,,,0.01,0,WeatherCatV1.15B25,2013-04-20 19:07:00,
2013-04-20 20:12:00,48.9,33.5,30.39,SE,137,2.0,4.0,55,0.00,,,0.01,0,WeatherCatV1.15B25,2013-04-20 19:12:00,
2013-04-20 20:17:00,48.6,33.2,30.39,ESE,117,3.0,6.0,55,0.00,,,0.01,0,WeatherCatV1.15B25,2013-04-20 19:17:00,
2013-04-20 20:22:00,48.4,33.4,30.39,SE,126,4.0,5.0,56,0.00,,,0.01,0,WeatherCatV1.15B25,2013-04-20 19:22:00,
2013-04-20 20:27:00,48.1,33.2,30.40,SE,129,3.0,3.0,56,0.00,,,0.01,0,WeatherCatV1.15B25,2013-04-20 19:27:00,
2013-04-20 20:32:00,47.9,33.4,30.40,SE,125,2.0,7.0,57,0.00,,,0.01,0,WeatherCatV1.15B25,2013-04-20 19:32:00,
2013-04-20 20:37:00,47.8,33.7,30.40,SE,135,5.0,6.0,58,0.00,,,0.01,0,WeatherCatV1.15B25,2013-04-20 19:37:00,
2013-04-20 20:42:00,47.6,33.6,30.40,SE,136,4.0,5.0,58,0.00,,,0.01,0,WeatherCatV1.15B25,2013-04-20 19:42:00,
2013-04-20 20:47:00,47.4,33.8,30.40,SE,128,4.0,4.0,59,0.00,,,0.01,0,WeatherCatV1.15B25,2013-04-20 19:47:00,
2013-04-20 20:52:00,47.3,33.7,30.40,SE,126,7.0,7.0,59,0.00,,,0.01,0,WeatherCatV1.15B25,2013-04-20 19:52:00,
2013-04-20 20:57:00,47.2,34.0,30.40,SE,124,4.0,5.0,60,0.00,,,0.01,0,WeatherCatV1.15B25,2013-04-20 19:57:00,
2013-04-20 21:02:00,47.0,33.8,30.39,SE,130,2.0,7.0,60,0.00,,,0.01,0,WeatherCatV1.15B25,2013-04-20 20:02:00,
2013-04-20 21:07:00,46.8,34.1,30.39,SE,129,5.0,5.0,61,0.00,,,0.01,0,WeatherCatV1.15B25,2013-04-20 20:07:00,
2013-04-20 21:12:00,46.6,33.9,30.39,SE,128,2.0,5.0,61,0.00,,,0.01,0,WeatherCatV1.15B25,2013-04-20 20:12:00,
2013-04-20 21:17:00,46.4,34.1,30.39,SE,130,4.0,6.0,62,0.00,,,0.01,0,WeatherCatV1.15B25,2013-04-20 20:17:00,
2013-04-20 21:22:00,46.2,34.3,30.39,SE,126,3.0,4.0,63,0.00,,,0.01,0,WeatherCatV1.15B25,2013-04-20 20:22:00,
2013-04-20 21:27:00,46.0,34.5,30.39,SE,136,4.0,7.0,64,0.00,,,0.01,0,WeatherCatV1.15B25,2013-04-20 20:27:00,
2013-04-20 21:32:00,46.0,35.3,30.39,SE,128,4.0,10.0,66,0.00,,,0.01,0,WeatherCatV1.15B25,2013-04-20 20:32:00,
2013-04-20 21:37:00,45.9,35.6,30.39,SE,144,4.0,8.0,67,0.00,,,0.01,0,WeatherCatV1.15B25,2013-04-20 20:37:00,
2013-04-20 21:42:00,45.7,35.4,30.39,SE,126,2.0,7.0,67,0.00,,,0.01,0,WeatherCatV1.15B25,2013-04-20 20:42:00,
2013-04-20 21:47:00,45.5,35.6,30.39,SE,129,2.0,6.0,68,0.00,,,0.01,0,WeatherCatV1.15B25,2013-04-20 20:47:00,
2013-04-20 21:52:00,45.3,35.4,30.39,SE,131,5.0,6.0,68,0.00,,,0.01,0,WeatherCatV1.15B25,2013-04-20 20:52:00,
2013-04-20 21:57:00,45.0,35.5,30.39,SE,129,4.0,8.0,69,0.00,,,0.01,0,WeatherCatV1.15B25,2013-04-20 20:57:00,
2013-04-20 22:03:00,44.8,35.6,30.38,SE,128,2.0,9.0,70,0.00,,,0.01,0,WeatherCatV1.15B25,2013-04-20 21:03:00,
2013-04-20 22:07:00,44.6,35.4,30.38,SE,125,3.0,9.0,70,0.00,,,0.01,0,WeatherCatV1.15B25,2013-04-20 21:07:00,
2013-04-20 22:12:00,44.5,35.7,30.38,SE,129,6.0,6.0,71,0.00,,,0.01,0,WeatherCatV1.15B25,2013-04-20 21:12:00,
2013-04-20 22:17:00,44.3,35.5,30.38,SE,128,3.0,6.0,71,0.00,,,0.01,0,WeatherCatV1.15B25,2013-04-20 21:17:00,
2013-04-20 22:22:00,44.1,35.7,30.38,SE,128,3.0,5.0,72,0.00,,,0.01,0,WeatherCatV1.15B25,2013-04-20 21:22:00,
2013-04-20 22:27:00,43.9,35.5,30.38,SE,144,2.0,6.0,72,0.00,,,0.01,0,WeatherCatV1.15B25,2013-04-20 21:27:00,
2013-04-20 22:33:00,43.8,35.7,30.38,SE,131,5.0,6.0,73,0.00,,,0.01,0,WeatherCatV1.15B25,2013-04-20 21:33:00,
2013-04-20 22:38:00,43.6,35.9,30.37,SE,130,0.0,4.0,74,0.00,,,0.01,0,WeatherCatV1.15B25,2013-04-20 21:38:00,
2013-04-20 22:42:00,43.4,35.7,30.37,SE,127,0.0,5.0,74,0.00,,,0.01,0,WeatherCatV1.15B25,2013-04-20 21:42:00,
2013-04-20 22:47:00,43.3,35.9,30.37,SE,128,2.0,2.0,75,0.00,,,0.01,0,WeatherCatV1.15B25,2013-04-20 21:47:00,
2013-04-20 22:53:00,43.0,35.6,30.38,SE,128,2.0,4.0,75,0.00,,,0.01,0,WeatherCatV1.15B25,2013-04-20 21:53:00,
2013-04-20 22:58:00,42.8,35.4,30.37,SE,126,2.0,4.0,75,0.00,,,0.01,0,WeatherCatV1.15B25,2013-04-20 21:58:00,
2013-04-20 23:03:00,42.6,35.6,30.37,SE,126,1.0,2.0,76,0.00,,,0.01,0,WeatherCatV1.15B25,2013-04-20 22:03:00,
2013-04-20 23:08:00,42.5,35.5,30.37,SE,126,1.0,3.0,76,0.00,,,0.01,0,WeatherCatV1.15B25,2013-04-20 22:08:00,
2013-04-20 23:13:00,42.4,35.4,30.37,SE,126,1.0,2.0,76,0.00,,,0.01,0,WeatherCatV1.15B25,2013-04-20 22:13:00,
2013-04-20 23:18:00,42.3,35.6,30.37,SE,127,4.0,4.0,77,0.00,,,0.01,0,WeatherCatV1.15B25,2013-04-20 22:18:00,
2013-04-20 23:23:00,42.3,35.6,30.37,SE,128,1.0,5.0,77,0.00,,,0.01,0,WeatherCatV1.15B25,2013-04-20 22:23:00,
2013-04-20 23:28:00,42.2,35.5,30.37,ESE,116,3.0,3.0,77,0.00,,,0.01,0,WeatherCatV1.15B25,2013-04-20 22:28:00,
2013-04-20 23:33:00,42.0,35.3,30.36,SE,127,3.0,5.0,77,0.00,,,0.01,0,WeatherCatV1.15B25,2013-04-20 22:33:00,
2013-04-20 23:38:00,41.9,34.9,30.37,ESE,117,2.0,6.0,76,0.00,,,0.01,0,WeatherCatV1.15B25,2013-04-20 22:38:00,
2013-04-20 23:43:00,41.9,34.9,30.36,SE,131,2.0,3.0,76,0.00,,,0.01,0,WeatherCatV1.15B25,2013-04-20 22:43:00,
2013-04-20 23:48:00,41.7,34.7,30.36,SE,131,3.0,3.0,76,0.00,,,0.01,0,WeatherCatV1.15B25,2013-04-20 22:48:00,
2013-04-20 23:53:00,41.6,34.6,30.36,SE,130,4.0,4.0,76,0.00,,,0.01,0,WeatherCatV1.15B25,2013-04-20 22:53:00,
2013-04-20 23:58:00,41.4,34.7,30.36,SE,129,3.0,4.0,77,0.00,,,0.01,0,WeatherCatV1.15B25,2013-04-20 22:58:00,